Darstellungsparameter: Aktuell verwendete Einstellungen:
Skalierung der Graphiken ... ?
xyx+y,   Skalierungsfaktor:      Skalierung: Modus: x, Faktor: 1
Darstellungszeitraum ... ?
Vom - - bis: - -   Zeitraum: 24.04.2019 - 24.04.2019
Min/Max/Avg-Anzeige ... ?
Zeige MMA aktuell
Zeige MMA Monat
Zeige MMA alles
Zeige --A aktuell
Zeige --A Monat
Zeige --A alles
Keine MMA-Anzeige
MMA:
Keine MMA-Graphiken
MMA-Basis: 24.04.2019 - 24.04.2019
Quicknavigation für Darstellung... ?
Tage:      1T, 2T, 3T, 5T -1T -2T -3T -5T +1T +2T +3T +5T
Wochen: 1W, 2W, 3W -1W -2W -3W +1W +2W +3W
Monate: 1M, 3M, 6M -1M -3M -6M +1M +3M +6M
Jahre:    1J, 3J, 5J, 10J -1J -3J -5J -10J +1J +3J +5J +10J
Nutze für die Darstellung ... ?
Originaldaten oder Mittelwerte auf ...
Stundenbasis Tagesbasis Wochenbasis
Monatsbasis Jahresbasis      Datenbasis: Original-Daten
Darstellen als:
Statistik (Auto) Statistik J:M      Darstellung:
Zur Graphik,    zurück zur Übersicht aller Sensoren.
 
Tabellarische Datenbersicht: ?
 
Sensor: Nr:Datum:Temp:Feuchte:
Aussen-T/F 1 24-04-2019 00:10:18 14.2 C 20 %
2 24-04-2019 00:22:17 14 C 20 %
3 24-04-2019 00:34:17 14 C 21 %
4 24-04-2019 00:46:17 14 C 21 %
5 24-04-2019 00:58:17 14 C 21 %
6 24-04-2019 01:10:18 12 C 25 %
7 24-04-2019 01:22:17 11.8 C 26 %
8 24-04-2019 01:34:17 11.4 C 28 %
9 24-04-2019 01:46:17 11.1 C 30 %
10 24-04-2019 01:58:17 11.1 C 30 %
11 24-04-2019 02:10:18 10.7 C 31 %
12 24-04-2019 02:22:17 10.5 C 33 %
13 24-04-2019 02:34:17 10.3 C 35 %
14 24-04-2019 02:46:17 10.3 C 35 %
15 24-04-2019 02:58:17 9.9 C 36 %
16 24-04-2019 03:10:18 9.7 C 37 %
17 24-04-2019 03:22:17 9.5 C 38 %
18 24-04-2019 03:34:17 9.5 C 39 %
19 24-04-2019 03:46:17 9.4 C 39 %
20 24-04-2019 03:58:17 9.3 C 40 %
21 24-04-2019 04:10:18 9.1 C 40 %
22 24-04-2019 04:22:17 9.2 C 41 %
23 24-04-2019 04:34:17 9.2 C 41 %
24 24-04-2019 04:46:17 9 C 42 %
25 24-04-2019 04:58:17 8.9 C 42 %
Sensor: Nr:Datum:Temp:Feuchte:
Aussen-T/F 26 24-04-2019 05:10:17 8.7 C 42 %
27 24-04-2019 05:22:17 8.5 C 43 %
28 24-04-2019 05:34:18 8.4 C 44 %
29 24-04-2019 05:46:17 8.5 C 45 %
30 24-04-2019 05:58:17 8.6 C 45 %
31 24-04-2019 06:10:17 8.6 C 45 %
32 24-04-2019 06:22:18 8.5 C 45 %
33 24-04-2019 06:34:17 8.4 C 45 %
34 24-04-2019 06:46:17 8.2 C 45 %
35 24-04-2019 06:58:17 8.4 C 46 %
36 24-04-2019 07:10:17 8.9 C 47 %
37 24-04-2019 07:22:17 9.6 C 45 %
38 24-04-2019 07:34:18 10.5 C 40 %
39 24-04-2019 07:46:17 10.8 C 35 %
40 24-04-2019 07:58:17 11.3 C 31 %
41 24-04-2019 08:10:17 11.4 C 29 %
42 24-04-2019 08:22:17 11.4 C 29 %
43 24-04-2019 08:34:17 12.4 C 25 %
44 24-04-2019 08:46:17 12.8 C 25 %
45 24-04-2019 08:58:17 13.1 C 25 %
46 24-04-2019 09:10:17 13.3 C 25 %
47 24-04-2019 09:22:17 13.8 C 23 %
48 24-04-2019 09:34:17 14.1 C 22 %
49 24-04-2019 09:46:18 14.9 C 22 %
50 24-04-2019 09:58:18 15.4 C 20 %
Sensor: Nr:Datum:Temp:Feuchte:
Aussen-T/F 51 24-04-2019 10:10:17 17.2 C 20 %
52 24-04-2019 10:22:17 17.5 C 20 %
53 24-04-2019 10:34:18 17.5 C 20 %
54 24-04-2019 10:46:17 17.5 C 20 %
55 24-04-2019 10:58:17 21.4 C 20 %
56 24-04-2019 11:10:17 19.8 C 20 %
57 24-04-2019 11:22:18 22.5 C 20 %
58 24-04-2019 11:34:17 20.5 C 20 %
59 24-04-2019 11:46:17 20.8 C 20 %
60 24-04-2019 11:58:17 20.8 C 20 %
61 24-04-2019 12:10:17 21 C 20 %
62 24-04-2019 12:22:17 21 C 20 %
63 24-04-2019 12:34:17 21.8 C 20 %
64 24-04-2019 12:46:17 21.7 C 20 %
65 24-04-2019 12:58:17 22 C 20 %
66 24-04-2019 13:10:18 22 C 20 %
67 24-04-2019 13:22:17 22.2 C 20 %
68 24-04-2019 13:34:17 22.5 C 20 %
69 24-04-2019 13:46:17 22.6 C 20 %
70 24-04-2019 13:58:17 23.1 C 20 %
71 24-04-2019 14:10:17 23.6 C 20 %
72 24-04-2019 14:22:17 23.7 C 20 %
73 24-04-2019 14:34:18 24.3 C 20 %
74 24-04-2019 14:46:17 24.6 C 20 %
75 24-04-2019 14:58:17 25.1 C 20 %
Sensor: Nr:Datum:Temp:Feuchte:
Aussen-T/F 76 24-04-2019 15:10:17 25.3 C 20 %
77 24-04-2019 15:22:17 25.8 C 20 %
78 24-04-2019 15:34:17 25.9 C 20 %
79 24-04-2019 15:46:17 26.3 C 20 %
80 24-04-2019 15:58:17 26.9 C 20 %
81 24-04-2019 16:10:17 26.5 C 20 %
82 24-04-2019 16:22:17 26.5 C 20 %
83 24-04-2019 16:34:17 24.8 C 20 %
84 24-04-2019 16:46:17 25.4 C 20 %
85 24-04-2019 16:58:17 27.9 C 20 %
86 24-04-2019 17:10:17 27 C 20 %
87 24-04-2019 17:22:17 26.3 C 20 %
88 24-04-2019 17:34:17 25.8 C 20 %
89 24-04-2019 17:46:17 25 C 20 %
90 24-04-2019 17:58:18 24.6 C 20 %
91 24-04-2019 18:10:17 23.5 C 20 %
92 24-04-2019 18:22:17 18.7 C 20 %
93 24-04-2019 18:34:18 17.1 C 20 %
94 24-04-2019 18:46:17 16.3 C 20 %
95 24-04-2019 18:58:17 15.5 C 20 %
96 24-04-2019 19:10:18 14.2 C 25 %
97 24-04-2019 19:22:17 13.2 C 28 %
98 24-04-2019 19:34:17 13.2 C 28 %
99 24-04-2019 19:46:17 13.6 C 20 %
100 24-04-2019 19:58:17 12.5 C 23 %
Sensor: Nr:Datum:Temp:Feuchte:
Aussen-T/F 101 24-04-2019 20:10:17 11.5 C 30 %
102 24-04-2019 20:22:17 10.8 C 40 %
103 24-04-2019 20:34:17 10.5 C 43 %
104 24-04-2019 20:46:17 10.4 C 45 %
105 24-04-2019 20:58:17 9.7 C 46 %
106 24-04-2019 21:10:18 9.6 C 47 %
107 24-04-2019 21:22:17 9.2 C 47 %
108 24-04-2019 21:34:17 9.3 C 49 %
109 24-04-2019 21:46:17 9.2 C 49 %
110 24-04-2019 21:58:17 9 C 49 %
111 24-04-2019 22:10:17 8.9 C 50 %
112 24-04-2019 22:22:17 8.7 C 50 %
113 24-04-2019 22:34:17 8.8 C 51 %
114 24-04-2019 22:46:17 8.7 C 51 %
115 24-04-2019 22:58:17 8.5 C 51 %
116 24-04-2019 23:10:17 8.5 C 51 %
117 24-04-2019 23:22:17 8.9 C 53 %
118 24-04-2019 23:34:17 8.9 C 53 %
119 24-04-2019 23:46:17 9 C 53 %
120 24-04-2019 23:58:17 8.9 C 54 %
Sensor: Nr:Datum:Temp:Feuchte:
G-T/H 1 24-04-2019 00:10:18 16 C 56 %
2 24-04-2019 00:22:17 16 C 56 %
3 24-04-2019 00:34:17 16 C 56 %
4 24-04-2019 00:46:17 16 C 56 %
5 24-04-2019 00:58:17 15.9 C 57 %
6 24-04-2019 01:10:18 15.9 C 57 %
7 24-04-2019 01:22:17 15.9 C 57 %
8 24-04-2019 01:34:17 15.8 C 57 %
9 24-04-2019 01:46:17 15.8 C 57 %
10 24-04-2019 01:58:17 15.8 C 57 %
11 24-04-2019 02:10:18 15.8 C 58 %
12 24-04-2019 02:22:17 15.7 C 58 %
13 24-04-2019 02:34:17 15.7 C 58 %
14 24-04-2019 02:46:17 15.7 C 58 %
15 24-04-2019 02:58:17 15.7 C 58 %
16 24-04-2019 03:10:18 15.6 C 58 %
17 24-04-2019 03:22:17 15.6 C 58 %
18 24-04-2019 03:34:17 15.6 C 58 %
19 24-04-2019 03:46:17 15.5 C 58 %
20 24-04-2019 03:58:17 15.5 C 59 %
21 24-04-2019 04:10:18 15.5 C 59 %
22 24-04-2019 04:22:17 15.4 C 59 %
23 24-04-2019 04:34:17 15.4 C 59 %
24 24-04-2019 04:46:17 15.4 C 59 %
25 24-04-2019 04:58:17 15.4 C 59 %
Sensor: Nr:Datum:Temp:Feuchte:
G-T/H 26 24-04-2019 05:10:17 15.4 C 59 %
27 24-04-2019 05:22:17 15.3 C 59 %
28 24-04-2019 05:34:18 15.3 C 59 %
29 24-04-2019 05:46:17 15.3 C 59 %
30 24-04-2019 05:58:17 15.2 C 59 %
31 24-04-2019 06:10:17 15.2 C 59 %
32 24-04-2019 06:22:18 15.2 C 59 %
33 24-04-2019 06:34:17 15.2 C 59 %
34 24-04-2019 06:46:17 15.1 C 59 %
35 24-04-2019 06:58:17 15.1 C 59 %
36 24-04-2019 07:10:17 15.1 C 59 %
37 24-04-2019 07:22:17 15.1 C 59 %
38 24-04-2019 07:34:18 15 C 59 %
39 24-04-2019 07:46:17 15 C 59 %
40 24-04-2019 07:58:17 15 C 59 %
41 24-04-2019 08:10:17 15 C 59 %
42 24-04-2019 08:22:17 15 C 59 %
43 24-04-2019 08:34:17 15 C 59 %
44 24-04-2019 08:46:17 15 C 59 %
45 24-04-2019 08:58:17 14.9 C 60 %
46 24-04-2019 09:10:17 14.9 C 60 %
47 24-04-2019 09:22:17 14.9 C 60 %
48 24-04-2019 09:34:17 14.9 C 60 %
49 24-04-2019 09:46:18 14.9 C 60 %
50 24-04-2019 09:58:18 14.9 C 60 %
Sensor: Nr:Datum:Temp:Feuchte:
G-T/H 51 24-04-2019 10:10:17 14.9 C 60 %
52 24-04-2019 10:22:17 15 C 59 %
53 24-04-2019 10:34:18 15 C 59 %
54 24-04-2019 10:46:17 14.9 C 60 %
55 24-04-2019 10:58:17 14.9 C 60 %
56 24-04-2019 11:10:17 14.9 C 60 %
57 24-04-2019 11:22:18 14.9 C 60 %
58 24-04-2019 11:34:17 14.9 C 60 %
59 24-04-2019 11:46:17 14.9 C 60 %
60 24-04-2019 11:58:17 14.9 C 60 %
61 24-04-2019 12:10:17 14.9 C 60 %
62 24-04-2019 12:22:17 14.9 C 60 %
63 24-04-2019 12:34:17 15 C 59 %
64 24-04-2019 12:46:17 15 C 59 %
65 24-04-2019 12:58:17 15 C 59 %
66 24-04-2019 13:10:18 15 C 59 %
67 24-04-2019 13:22:17 15 C 59 %
68 24-04-2019 13:34:17 15.1 C 59 %
69 24-04-2019 13:46:17 15.1 C 59 %
70 24-04-2019 13:58:17 15.1 C 59 %
71 24-04-2019 14:10:17 15.1 C 59 %
72 24-04-2019 14:22:17 15.1 C 59 %
73 24-04-2019 14:34:18 15.2 C 59 %
74 24-04-2019 14:46:17 15.2 C 59 %
75 24-04-2019 14:58:17 15.2 C 60 %
Sensor: Nr:Datum:Temp:Feuchte:
G-T/H 76 24-04-2019 15:10:17 15.3 C 60 %
77 24-04-2019 15:22:17 15.3 C 60 %
78 24-04-2019 15:34:17 15.3 C 60 %
79 24-04-2019 15:46:17 15.4 C 60 %
80 24-04-2019 15:58:17 15.4 C 60 %
81 24-04-2019 16:10:17 15.4 C 60 %
82 24-04-2019 16:22:17 15.4 C 60 %
83 24-04-2019 16:34:17 15.5 C 60 %
84 24-04-2019 16:46:17 15.5 C 60 %
85 24-04-2019 16:58:17 15.6 C 60 %
86 24-04-2019 17:10:17 15.6 C 60 %
87 24-04-2019 17:22:17 15.6 C 60 %
88 24-04-2019 17:34:17 15.7 C 60 %
89 24-04-2019 17:46:17 15.6 C 60 %
90 24-04-2019 17:58:18 15.7 C 60 %
91 24-04-2019 18:10:17 15.8 C 60 %
92 24-04-2019 18:22:17 15.8 C 60 %
93 24-04-2019 18:34:18 15.8 C 60 %
94 24-04-2019 18:46:17 15.8 C 60 %
95 24-04-2019 18:58:17 15.8 C 60 %
96 24-04-2019 19:10:18 15.8 C 60 %
97 24-04-2019 19:22:17 15.7 C 60 %
98 24-04-2019 19:34:17 15.7 C 60 %
99 24-04-2019 19:46:17 15.7 C 60 %
100 24-04-2019 19:58:17 15.7 C 61 %
Sensor: Nr:Datum:Temp:Feuchte:
G-T/H 101 24-04-2019 20:10:17 15.7 C 61 %
102 24-04-2019 20:22:17 15.7 C 61 %
103 24-04-2019 20:34:17 15.7 C 61 %
104 24-04-2019 20:46:17 15.7 C 61 %
105 24-04-2019 20:58:17 15.6 C 61 %
106 24-04-2019 21:10:18 15.6 C 61 %
107 24-04-2019 21:22:17 15.6 C 61 %
108 24-04-2019 21:34:17 15.6 C 61 %
109 24-04-2019 21:46:17 15.6 C 61 %
110 24-04-2019 21:58:17 15.6 C 61 %
111 24-04-2019 22:10:17 15.5 C 61 %
112 24-04-2019 22:22:17 15.5 C 61 %
113 24-04-2019 22:34:17 15.5 C 61 %
114 24-04-2019 22:46:17 15.5 C 61 %
115 24-04-2019 22:58:17 15.5 C 61 %
116 24-04-2019 23:10:17 15.4 C 61 %
117 24-04-2019 23:22:17 15.4 C 61 %
118 24-04-2019 23:34:17 15.4 C 61 %
119 24-04-2019 23:46:17 15.4 C 61 %
120 24-04-2019 23:58:17 15.4 C 61 %

Legende:
   Min
   Max


Maximal/Minimal-Werte vom 24.04.2019 - 24.04.2019

Sensor Min Max Avg
Temp
(Aussen-T/F)
8.2 °C
24-04-2019  06:46:17
27.9 °C
24-04-2019  16:58:17
15.1 °C
Feuchte
(Aussen-T/F)
20 %
24-04-2019  00:10:18
54 %
24-04-2019  23:58:17
30.71 %
Temp
(G-T/H)
14.9 °C
24-04-2019  08:58:17
16 °C
24-04-2019  00:10:18
15.38 °C
Feuchte
(G-T/H)
56 %
24-04-2019  00:10:18
61 %
24-04-2019  19:58:17
59.42 %

Die Daten stammen von einer Davis Vantage Pro 2 Wetter-Station und werden unter Linux mit der Software wview2wettercgi und aufbereitet. Alle Angaben erfolgen ohne Gewähr für ihre Vollständigkeit oder Richtigkeit.
Kontakt: Rainer Krienke krienke@uni-koblenz.de . Meine Webseiten an der Uni Koblenz oder privat.
Version: $Revision: 0.78 $